Starlink 3603

operational
NORAD ID: 51816 Int'l Des: 2022-017 Owner: SPXS Country: US Constellation: starlink
LEOCIRCULAR

About Starlink 3603

Description loading...

Live Position

Loading 3D Globe...

Upcoming Passes

Altitude History

Altitude vs Time

uPlot chart will show altitude changes over time

Two-Line Element Set

1 51816U 22017BA 26020.33336806 .00614602 00000-0 15802-1 0 9991
2 51816 53.2171 182.8613 0000821 86.4998 177.6717 15.36641597 5824
Epoch: Jan 20, 2026 • Age: 10 hours

Current Status

Altitude 456.5 km
Velocity 7.64 km/s
Sub-Earth Point -5.65°S, 150.36°E
Launch Date Feb 25, 2022
Age 3.9 years
Type internet

Technical Details

Classification Payload
Mass 297.00 kg
Dry Mass 275.00 kg
Total Mass 297.00 kg
Length 0.20 m
Diameter 2.80 m
Span 9.00 m
Shape Box + pan
Manufacturer SPXS
Bus Type Starlink
Phase Status In Orbit
Owner/State SPXS/US

Large Constellations

Loading constellations...